SCP
2 3 3 3 2 1 1 2 2 1 1 1 1 1 1 1 1 1 1 1 1 1 1 1 1 1 1 1 1 1 2 2 1 1 1 1 1 0 0 0 0 0 0
3 3 3 3 2 2 1 1 2 1 1 1 1 1 1 1 1 1 1 1 1 1 1 1 1 1 1 1 1 1 2 2 1 1 1 1 1 1 1 0 0 0 0
3 3 3 2 2 2 1 1 1 1 1 1 1 1 1 1 1 1 1 1 1 1 1 1 1 1 1 1 1 1 1 2 2 1 1 1 1 1 1 1 1 0 0
3 3 2 2 2 2 2 1 1 1 1 1 1 1 1 1 1 1 1 1 1 1 1 1 1 1 1 1 1 1 1 1 2 2 1 1 1 1 1 1 1 1 0
3 3 2 2 2 2 2 2 1 1 1 1 1 1 1 1 0 0 0 0 0 0 1 1 1 1 1 1 1 1 1 2 2 2 2 2 1 1 1 1 1 1 1
3 2 2 2 2 2 2 1 1 1 0 0 0 0 0 0 0 0 0 0 0 0 0 1 1 1 1 1 1 2 2 2 2 2 2 2 2 2 1 1 1 1 1
2 2 1 1 1 2 1 1 0 0 0 0 0 0 0 0 0 0 0 0 0 0 0 0 1 1 1 1 1 2 2 2 2 2 2 2 2 2 2 1 1 1 1
2 1 1 1 1 1 1 0 0 0 0 0 0 0 0 0 0 0 0 0 0 0 0 0 0 1 1 1 1 1 2 2 2 2 3 2 2 2 2 2 2 2 1
1 1 1 1 0 0 0 0 0 0 0 0 0 0 0 0 0 0 0 0 0 0 0 0 0 0 1 1 1 1 2 2 2 3 3 2 2 2 2 2 2 1 1
0 0 0 0 0 0 0 0 0 0 0 0 0 0 0 0 0 0 0 0 0 0 0 0 0 0 1 1 1 1 1 2 2 3 3 3 2 2 2 2 2 1 1
0 0 0 0 0 0 0 0 0 0 0 0 0 0 0 0 0 0 0 0 0 0 0 0 0 0 1 1 1 1 1 1 2 2 3 3 2 2 2 2 2 2 2
0 0 0 0 0 0 0 0 0 0 0 0 0 0 0 0 0 0 0 0 0 0 0 0 0 0 0 1 1 1 1 1 1 2 2 2 2 2 2 1 2 2 2
0 0 0 0 0 0 0 0 0 0 0 0 0 0 0 0 0 0 0 0 0 0 0 0 0 0 0 0 0 1 1 1 1 1 1 2 2 2 1 1 2 2 2
0 0 0 0 0 0 0 0 0 0 0 0 0 0 0 0 0 0 0 0 0 0 0 0 0 0 0 0 0 0 0 0 0 1 1 1 1 1 1 1 1 1 1
0 0 0 0 0 0 0 0 0 0 0 0 0 0 0 0 0 0 0 0 0 0 0 0 0 0 0 0 0 0 0 0 0 0 1 1 1 1 1 1 1 1 1
0 0 0 0 0 0 0 0 0 0 0 0 0 0 0 0 0 0 0 0 0 0 0 0 0 0 0 0 0 0 0 0 0 0 0 0 0 0 0 0 0 0 0
0 0 0 0 0 0 0 0 0 0 0 0 0 1 0 0 0 0 0 0 0 0 0 0 0 0 0 0 0 0 0 0 0 0 0 0 0 0 0 0 0 0 0
0 0 0 0 0 0 0 0 0 0 0 0 0 0 0 0 0 0 0 0 0 0 0 0 0 0 0 0 0 0 0 0 0 0 0 0 0 0 0 0 0 0 0
0 0 0 0 0 0 0 0 0 0 0 0 0 0 0 0 0 0 0 0 0 0 0 0 0 0 0 0 0 0 0 0 0 0 0 0 0 0 0 0 0 0 0
0 0 0 0 0 0 0 0 0 0 0 0 0 0 0 0 0 0 0 0 0 0 0 0 0 0 0 0 0 0 0 0 0 0 0 0 0 0 0 0 0 0 0
0 0 0 0 0 0 0 0 0 0 0 0 0 0 0 0 0 0 0 0 0 0 0 0 0 0 0 0 0 0 0 0 0 0 0 0 0 0 0 0 0 0 0
0 0 0 0 0 0 0 0 0 0 0 0 0 0 0 0 0 0 0 0 0 0 0 0 0 0 0 0 0 0 0 0 0 0 0 0 0 0 0 0 0 0 0
0 0 0 0 0 0 0 0 0 0 0 0 0 0 0 0 0 0 0 0 0 0 0 0 0 0 0 0 0 0 0 0 0 0 0 0 0 0 0 0 0 0 0
0 0 0 0 0 0 0 0 0 0 0 0 0 0 0 0 0 0 0 0 0 0 0 0 0 0 0 0 0 0 0 0 0 0 0 0 0 0 0 0 0 0 0
0 0 0 0 0 0 0 0 0 0 0 0 0 0 0 0 0 0 0 0 0 0 0 0 0 0 0 0 0 0 0 0 0 0 0 0 0 0 0 0 0 0 0
0 0 0 0 0 0 0 0 0 0 0 0 0 0 0 0 0 0 0 0 0 0 0 0 0 0 0 0 0 0 0 0 0 0 0 0 0 0 0 0 0 0 0
Wind_Speed
7 7 6 6 7 6 6 6 6 7 8 8 8 9 8 8 8 7 5 12 13 13 14 15 14 14 15 16 17 18 20 20 19 18 17 17 17 16 16 15 15 14 13
8 7 7 7 7 7 6 6 6 5 5 5 6 7 7 7 6 6 6 8 13 12 12 13 13 13 13 14 15 16 18 19 18 18 18 18 17 17 17 17 16 15 15
9 8 7 7 6 6 6 4 4 3 3 3 5 5 5 5 6 7 7 6 6 10 12 12 12 12 13 13 15 16 16 17 18 18 18 18 18 17 17 17 17 17 16
11 9 7 7 5 4 4 3 3 3 3 3 3 4 4 4 6 7 6 6 6 6 8 12 12 13 14 14 15 15 15 16 17 17 18 18 19 18 18 18 18 17 17
11 9 7 5 4 4 4 4 3 3 3 3 3 3 3 4 5 6 7 7 7 7 6 8 12 13 15 16 15 15 15 15 16 17 18 19 19 19 18 18 18 17 17
9 7 5 5 5 4 3 3 3 2 2 2 2 2 3 4 4 5 6 5 5 7 7 7 7 8 13 14 15 16 16 15 15 16 17 18 17 17 17 18 18 18 18
7 6 4 5 5 5 5 5 3 3 2 2 1 1 2 2 3 3 3 3 4 4 5 6 5 5 5 10 13 14 16 16 15 15 15 15 15 15 16 17 18 18 18
5 5 6 5 5 4 4 5 4 3 2 3 3 1 2 2 1 1 1 1 2 1 2 4 5 6 6 5 7 13 15 16 17 16 15 14 14 14 15 16 17 18 18
3 4 6 5 6 5 6 6 5 6 4 3 2 3 3 3 2 2 1 1 1 2 2 3 5 6 6 6 6 10 14 14 16 17 16 16 14 13 13 13 15 16 17
3 2 3 5 5 5 5 6 6 4 5 3 2 2 2 3 2 1 2 2 2 3 4 4 4 5 5 5 6 9 12 12 14 15 16 16 15 13 12 12 13 14 15
5 5 3 2 4 4 6 6 6 6 5 4 4 3 2 1 2 2 2 3 3 3 3 4 4 4 4 4 4 7 9 10 11 12 13 15 15 14 13 13 14 13 14
3 5 4 3 3 3 5 6 6 8 6 5 4 4 4 3 3 4 4 3 3 3 3 3 3 3 3 3 3 5 6 7 8 9 10 11 12 13 13 13 13 13 13
2 3 4 3 3 4 4 5 6 7 8 7 7 5 5 4 3 4 3 3 2 2 3 2 1 2 2 2 2 3 2 5 6 6 7 7 8 9 9 10 10 9 9
3 3 3 3 3 3 4 4 5 7 7 8 8 7 5 5 5 5 4 3 2 2 2 2 1 2 2 2 3 4 2 4 6 7 7 7 7 7 6 6 5 4 4
4 4 4 3 3 3 3 3 4 6 7 8 8 8 6 5 5 5 5 4 3 2 2 2 0 2 2 3 3 3 4 6 9 10 10 10 10 10 9 9 8 7 6
6 5 5 4 4 3 2 2 3 4 6 7 6 8 8 5 5 5 5 5 5 4 3 1 1 1 2 3 5 5 6 10 11 11 12 12 12 12 12 12 11 11 10
7 7 6 5 5 5 3 3 3 3 4 5 6 8 9 8 6 6 6 5 6 5 5 3 1 1 2 4 4 5 5 6 6 11 12 13 13 13 13 13 12 12 12
8 8 7 6 6 6 5 4 4 4 4 4 5 6 8 7 9 7 6 7 6 7 5 5 2 2 3 5 6 6 5 5 6 10 12 13 13 13 13 13 13 13 13
10 9 8 8 8 7 6 6 6 5 5 5 5 6 6 7 9 7 8 7 6 6 5 4 3 2 2 5 6 6 7 6 6 8 11 12 13 14 14 14 14 14 14
10 10 10 10 9 8 7 7 6 6 6 6 6 6 5 6 8 8 8 9 7 7 6 5 4 4 3 6 6 7 6 4 5 6 8 9 13 15 15 15 15 16 15
11 11 10 9 9 8 8 8 7 7 6 6 6 6 6 7 9 8 7 8 9 7 7 6 6 5 5 7 7 5 7 7 5 4 6 6 6 7 9 12 15 16 15
10 9 10 10 9 8 11 13 10 7 7 7 6 6 6 8 9 11 12 12 12 11 10 8 7 8 8 8 7 9 9 7 5 3 5 5 5 6 6 6 10 13 14
10 9 10 10 10 11 14 14 13 8 7 7 7 6 6 5 7 7 9 12 13 14 13 10 10 10 11 11 12 12 10 6 5 7 6 5 4 6 5 6 10 12 12
8 8 9 9 9 10 14 14 14 9 7 8 8 7 7 6 6 7 6 8 9 11 12 11 10 9 10 12 12 11 11 9 8 4 3 5 3 4 5 5 8 10 11
8 8 6 8 9 10 12 13 12 6 7 8 8 8 8 8 9 10 8 8 8 8 9 11 11 10 13 17 15 12 12 12 9 4 2 4 5 4 4 4 5 8 9
8 8 8 7 8 9 11 12 11 5 6 6 6 6 9 9 9 10 9 9 10 8 7 8 9 11 13 18 21 16 15 14 11 6 4 5 7 6 5 3 3 4 6
Wind_Direction
232 230 231 231 232 233 236 238 233 230 228 228 228 226 231 233 235 236 241 249 251 246 243 244 243 238 233 228 221 217 213 211 209 208 208 209 210 209 207 207 207 207 205
234 232 232 233 233 231 232 231 227 226 224 221 230 228 232 237 237 238 239 249 254 254 250 248 248 243 239 234 225 221 217 213 210 209 209 209 210 211 211 210 210 210 208
238 236 233 235 233 225 224 224 219 206 208 210 226 231 233 238 239 244 245 244 251 255 254 251 250 246 241 236 227 223 218 214 212 210 210 210 210 212 212 212 212 211 210
240 236 231 232 225 211 204 200 194 193 204 205 216 228 229 232 238 242 246 246 247 253 254 254 251 247 242 239 233 227 221 215 212 210 211 211 211 212 214 214 215 214 212
241 230 224 222 201 193 190 189 177 183 194 205 217 228 233 234 241 248 247 248 246 246 248 252 253 250 247 243 238 232 228 219 214 213 213 213 214 213 214 216 217 216 214
236 217 209 202 185 180 180 176 167 170 185 192 217 237 246 247 245 245 250 253 251 250 248 248 249 250 249 245 238 232 230 224 219 216 215 214 214 215 216 217 218 218 215
223 200 193 187 182 183 185 177 161 171 182 160 148 296 299 267 255 245 244 245 253 257 254 250 244 243 247 245 239 233 232 229 224 219 213 211 212 214 217 220 220 218 217
226 204 196 190 186 180 180 179 165 161 177 171 159 157 307 327 319 300 267 230 260 276 276 272 261 250 244 241 239 235 232 229 227 221 213 212 214 216 218 220 222 220 218
259 219 206 195 190 184 189 189 177 169 178 192 187 163 176 223 290 317 313 313 322 302 297 296 280 268 255 243 243 238 232 226 226 223 216 212 210 212 218 219 224 223 221
334 304 239 211 200 196 195 193 184 176 164 179 196 210 194 170 173 299 312 313 309 290 296 299 298 289 270 253 242 236 230 224 221 220 216 210 206 207 213 219 225 227 224
359 3 344 275 227 214 211 199 184 185 180 176 178 175 180 185 178 193 263 304 311 287 284 288 292 293 289 273 255 243 229 222 216 213 210 207 202 201 208 216 222 228 228
344 356 356 340 292 246 224 212 201 194 194 188 186 181 173 171 185 193 224 254 283 288 293 290 293 302 305 297 274 253 226 214 207 203 200 197 197 200 204 210 218 226 231
310 320 333 326 310 281 253 222 209 208 201 199 199 200 198 196 173 172 196 233 261 285 302 308 324 340 339 334 314 305 233 193 185 182 179 176 180 191 195 200 210 214 219
259 271 288 298 300 297 279 238 223 217 209 209 209 204 203 205 193 184 185 192 236 264 276 287 344 30 26 13 20 22 60 125 134 137 136 134 135 139 140 141 147 156 171
259 260 265 276 284 289 292 272 237 228 215 213 214 209 209 206 197 197 193 188 194 225 260 264 317 51 54 42 36 52 68 92 102 107 110 111 110 111 111 109 106 106 107
255 264 268 266 267 267 264 261 267 249 230 222 214 211 213 209 200 196 197 198 200 204 232 229 211 91 82 80 70 73 80 84 88 97 101 102 103 103 102 101 100 98 96
246 248 254 260 264 261 248 234 240 260 251 241 226 217 220 209 202 199 193 192 199 202 229 237 199 139 123 118 97 86 78 75 83 89 95 98 100 99 99 97 96 94 93
241 240 241 243 250 253 243 232 239 237 245 254 247 229 225 215 210 201 194 196 198 200 211 227 205 169 147 140 121 104 88 81 83 88 93 97 98 98 96 95 93 91 90
238 236 232 234 239 242 240 239 234 229 227 237 247 245 235 219 215 205 199 198 196 195 201 209 208 174 140 141 126 109 101 93 90 92 90 92 97 99 98 97 96 92 90
233 233 230 229 232 236 237 238 238 233 226 224 227 237 243 232 225 212 203 201 191 189 194 202 205 183 154 146 139 135 121 107 99 94 90 91 96 96 98 100 101 99 94
234 230 228 227 228 229 233 230 229 232 227 226 226 229 233 240 241 225 208 198 187 189 191 199 200 185 169 163 157 146 133 119 92 101 102 87 90 88 88 95 99 102 98
236 226 224 224 225 228 230 227 220 222 224 227 234 236 238 237 244 237 222 204 190 189 193 195 200 195 182 165 152 149 143 140 130 140 111 89 85 87 83 91 99 101 100
239 227 223 219 223 228 231 235 231 220 224 227 230 236 247 237 219 229 225 214 206 202 196 195 201 197 181 168 159 159 160 146 133 149 129 102 90 85 81 90 98 101 101
244 234 227 220 220 229 229 233 236 228 226 231 232 233 240 249 232 215 214 215 213 210 208 207 211 200 180 168 165 155 142 115 104 122 120 113 113 96 88 87 97 104 106
245 233 223 219 220 231 231 230 229 218 222 232 234 232 233 243 236 214 209 212 214 215 211 209 205 190 167 157 150 139 140 138 137 145 129 116 130 113 98 90 93 105 114
242 235 230 222 221 229 233 230 220 207 217 229 236 235 233 236 232 212 212 208 211 206 188 186 186 175 164 158 157 159 156 153 147 148 166 131 147 138 121 114 113 112 113